Year,Month,Day,Hour,Minute,Value (Times are PST for temperature in C)
2009,09,17,00,00,10.40
2009,09,17,00,01,10.40
2009,09,17,00,02,10.40
2009,09,17,00,03,10.40
2009,09,17,00,04,10.40
2009,09,17,00,05,10.40
2009,09,17,00,06,10.40
2009,09,17,00,07,10.30
2009,09,17,00,08,10.20
2009,09,17,00,09,10.20
2009,09,17,00,10,10.10
2009,09,17,00,11,10.10
2009,09,17,00,12,10.10
2009,09,17,00,13,10.10
2009,09,17,00,14,10.10
2009,09,17,00,15,10.10
2009,09,17,00,16,10.10
2009,09,17,00,17,9.90
2009,09,17,00,18,9.90
2009,09,17,00,19,9.90
2009,09,17,00,20,9.90
2009,09,17,00,21,9.90
2009,09,17,00,22,10.00
2009,09,17,00,23,10.10
2009,09,17,00,24,10.10
2009,09,17,00,25,10.10
2009,09,17,00,26,10.10
2009,09,17,00,27,10.20
2009,09,17,00,28,10.20
2009,09,17,00,29,10.30
2009,09,17,00,30,10.40
2009,09,17,00,31,10.40
2009,09,17,00,32,10.40
2009,09,17,00,33,10.40
2009,09,17,00,34,10.30
2009,09,17,00,35,10.20
2009,09,17,00,36,10.10
2009,09,17,00,37,10.10
2009,09,17,00,38,10.10
2009,09,17,00,39,10.10
2009,09,17,00,40,10.00
2009,09,17,00,41,9.90
2009,09,17,00,42,9.90
2009,09,17,00,43,9.90
2009,09,17,00,44,9.90
2009,09,17,00,45,9.80
2009,09,17,00,46,9.80
2009,09,17,00,47,9.70
2009,09,17,00,48,9.70
2009,09,17,00,49,9.70
2009,09,17,00,50,9.70
2009,09,17,00,51,9.70
2009,09,17,00,52,9.60
2009,09,17,00,53,9.60
2009,09,17,00,54,9.60
2009,09,17,00,55,9.50
2009,09,17,00,56,9.50
2009,09,17,00,57,9.50
2009,09,17,00,58,9.50
2009,09,17,00,59,9.50
2009,09,17,01,00,9.40
2009,09,17,01,01,9.40
2009,09,17,01,02,9.40
2009,09,17,01,03,9.40
2009,09,17,01,04,9.40
2009,09,17,01,05,9.40
2009,09,17,01,06,9.40
2009,09,17,01,07,9.40
2009,09,17,01,08,9.40
2009,09,17,01,09,9.40
2009,09,17,01,10,9.30
2009,09,17,01,11,9.30
2009,09,17,01,12,9.30
2009,09,17,01,13,9.20
2009,09,17,01,14,9.20
2009,09,17,01,15,9.20
2009,09,17,01,16,9.10
2009,09,17,01,17,9.10
2009,09,17,01,18,9.00
2009,09,17,01,19,9.00
2009,09,17,01,20,9.00
2009,09,17,01,21,8.90
2009,09,17,01,22,8.90
2009,09,17,01,23,8.90
2009,09,17,01,24,8.90
2009,09,17,01,25,8.90
2009,09,17,01,26,8.90
2009,09,17,01,27,8.90
2009,09,17,01,28,8.90
2009,09,17,01,29,8.90
2009,09,17,01,30,8.90
2009,09,17,01,31,8.90
2009,09,17,01,32,8.90
2009,09,17,01,33,9.00
2009,09,17,01,34,9.00
2009,09,17,01,35,9.00
2009,09,17,01,36,9.00
2009,09,17,01,37,9.00
2009,09,17,01,38,9.00
2009,09,17,01,39,8.90
2009,09,17,01,40,8.90
2009,09,17,01,41,8.80
2009,09,17,01,42,8.80
2009,09,17,01,43,8.80
2009,09,17,01,44,8.70
2009,09,17,01,45,8.70
2009,09,17,01,46,8.70
2009,09,17,01,47,8.70
2009,09,17,01,48,8.70
2009,09,17,01,49,8.80
2009,09,17,01,50,8.80
2009,09,17,01,51,8.80
2009,09,17,01,52,8.90
2009,09,17,01,53,9.00
2009,09,17,01,54,9.10
2009,09,17,01,55,9.00
2009,09,17,01,56,9.00
2009,09,17,01,57,9.00
2009,09,17,01,58,8.90
2009,09,17,01,59,8.90
2009,09,17,02,00,8.80
2009,09,17,02,01,8.80
2009,09,17,02,02,8.70
2009,09,17,02,03,8.70
2009,09,17,02,04,8.60
2009,09,17,02,05,8.60
2009,09,17,02,06,8.60
2009,09,17,02,07,8.50
2009,09,17,02,08,8.50
2009,09,17,02,09,8.50
2009,09,17,02,10,8.50
2009,09,17,02,11,8.50
2009,09,17,02,12,8.50
2009,09,17,02,13,8.50
2009,09,17,02,14,8.50
2009,09,17,02,15,8.40
2009,09,17,02,16,8.40
2009,09,17,02,17,8.30
2009,09,17,02,18,8.40
2009,09,17,02,19,8.40
2009,09,17,02,20,8.50
2009,09,17,02,21,8.50
2009,09,17,02,22,8.60
2009,09,17,02,23,8.60
2009,09,17,02,24,8.60
2009,09,17,02,25,8.50
2009,09,17,02,26,8.50
2009,09,17,02,27,8.40
2009,09,17,02,28,8.40
2009,09,17,02,29,8.50
2009,09,17,02,30,8.50
2009,09,17,02,31,8.50
2009,09,17,02,32,8.60
2009,09,17,02,33,8.60
2009,09,17,02,34,8.70
2009,09,17,02,35,8.70
2009,09,17,02,36,8.70
2009,09,17,02,37,8.70
2009,09,17,02,38,8.70
2009,09,17,02,39,8.70
2009,09,17,02,40,8.70
2009,09,17,02,41,8.80
2009,09,17,02,42,8.80
2009,09,17,02,43,8.90
2009,09,17,02,44,8.90
2009,09,17,02,45,8.90
2009,09,17,02,46,8.90
2009,09,17,02,47,8.90
2009,09,17,02,48,9.00
2009,09,17,02,49,9.00
2009,09,17,02,50,9.10
2009,09,17,02,51,9.20
2009,09,17,02,52,9.20
2009,09,17,02,53,9.20
2009,09,17,02,54,9.20
2009,09,17,02,55,9.20
2009,09,17,02,56,9.10
2009,09,17,02,57,9.10
2009,09,17,02,58,9.10
2009,09,17,02,59,9.10
2009,09,17,03,00,9.10
2009,09,17,03,01,9.10
2009,09,17,03,02,9.10
2009,09,17,03,03,9.10
2009,09,17,03,04,9.10
2009,09,17,03,05,9.10
2009,09,17,03,06,9.00
2009,09,17,03,07,8.90
2009,09,17,03,08,8.80
2009,09,17,03,09,8.60
2009,09,17,03,10,8.50
2009,09,17,03,11,8.40
2009,09,17,03,12,8.30
2009,09,17,03,13,8.20
2009,09,17,03,14,8.20
2009,09,17,03,15,8.10
2009,09,17,03,16,8.00
2009,09,17,03,17,8.00
2009,09,17,03,18,7.90
2009,09,17,03,19,7.90
2009,09,17,03,20,7.80
2009,09,17,03,21,7.80
2009,09,17,03,22,7.80
2009,09,17,03,23,7.80
2009,09,17,03,24,7.70
2009,09,17,03,25,7.70
2009,09,17,03,26,7.70
2009,09,17,03,27,7.70
2009,09,17,03,28,7.70
2009,09,17,03,29,7.70
2009,09,17,03,30,7.70
2009,09,17,03,31,7.60
2009,09,17,03,32,7.60
2009,09,17,03,33,7.60
2009,09,17,03,34,7.60
2009,09,17,03,35,7.50
2009,09,17,03,36,7.50
2009,09,17,03,37,7.50
2009,09,17,03,38,7.40
2009,09,17,03,39,7.40
2009,09,17,03,40,7.40
2009,09,17,03,41,7.40
2009,09,17,03,42,7.40
2009,09,17,03,43,7.50
2009,09,17,03,44,7.50
2009,09,17,03,45,7.60
2009,09,17,03,46,7.60
2009,09,17,03,47,7.60
2009,09,17,03,48,7.60
2009,09,17,03,49,7.60
2009,09,17,03,50,7.70
2009,09,17,03,51,7.70
2009,09,17,03,52,7.80
2009,09,17,03,53,7.80
2009,09,17,03,54,7.80
2009,09,17,03,55,7.80
2009,09,17,03,56,7.70
2009,09,17,03,57,7.60
2009,09,17,03,58,7.60
2009,09,17,03,59,7.60
2009,09,17,04,00,7.50
2009,09,17,04,01,7.60
2009,09,17,04,02,7.60
2009,09,17,04,03,7.60
2009,09,17,04,04,7.60
2009,09,17,04,05,7.60
2009,09,17,04,06,7.50
2009,09,17,04,07,7.50
2009,09,17,04,08,7.50
2009,09,17,04,09,7.50
2009,09,17,04,10,7.40
2009,09,17,04,11,7.40
2009,09,17,04,12,7.30
2009,09,17,04,13,7.30
2009,09,17,04,14,7.30
2009,09,17,04,15,7.30
2009,09,17,04,16,7.30
2009,09,17,04,17,7.30
2009,09,17,04,18,7.30
2009,09,17,04,19,7.30
2009,09,17,04,20,7.30
2009,09,17,04,21,7.30
2009,09,17,04,22,7.40
2009,09,17,04,23,7.40
2009,09,17,04,24,7.40
2009,09,17,04,25,7.40
2009,09,17,04,26,7.50
2009,09,17,04,27,7.50
2009,09,17,04,28,7.60
2009,09,17,04,29,7.60
2009,09,17,04,30,7.60
2009,09,17,04,31,7.60
2009,09,17,04,32,7.60
2009,09,17,04,33,7.70
2009,09,17,04,34,7.70
2009,09,17,04,35,7.70
2009,09,17,04,36,7.70
2009,09,17,04,37,7.80
2009,09,17,04,38,7.80
2009,09,17,04,39,7.90
2009,09,17,04,40,7.90
2009,09,17,04,41,8.10
2009,09,17,04,42,8.20
2009,09,17,04,43,8.20
2009,09,17,04,44,8.30
2009,09,17,04,45,8.40
2009,09,17,04,46,8.40
2009,09,17,04,47,8.40
2009,09,17,04,48,8.30
2009,09,17,04,49,8.30
2009,09,17,04,50,8.20
2009,09,17,04,51,8.10
2009,09,17,04,52,8.10
2009,09,17,04,53,8.00
2009,09,17,04,54,8.00
2009,09,17,04,55,8.00
2009,09,17,04,56,8.00
2009,09,17,04,57,8.00
2009,09,17,04,58,8.00
2009,09,17,04,59,8.00
2009,09,17,05,00,8.10
2009,09,17,05,01,8.10
2009,09,17,05,02,8.20
2009,09,17,05,03,8.20
2009,09,17,05,04,8.20
2009,09,17,05,05,8.10
2009,09,17,05,06,8.00
2009,09,17,05,07,7.90
2009,09,17,05,08,7.80
2009,09,17,05,09,7.70
2009,09,17,05,10,7.70
2009,09,17,05,11,7.60
2009,09,17,05,12,7.60
2009,09,17,05,13,7.60
2009,09,17,05,14,7.60
2009,09,17,05,15,7.60
2009,09,17,05,16,7.70
2009,09,17,05,17,7.70
2009,09,17,05,18,7.70
2009,09,17,05,19,7.70
2009,09,17,05,20,7.70
2009,09,17,05,21,7.70
2009,09,17,05,22,7.70
2009,09,17,05,23,7.70
2009,09,17,05,24,7.70
2009,09,17,05,25,7.70
2009,09,17,05,26,7.70
2009,09,17,05,27,7.70
2009,09,17,05,28,7.70
2009,09,17,05,29,7.70
2009,09,17,05,30,7.70
2009,09,17,05,31,7.70
2009,09,17,05,32,7.80
2009,09,17,05,33,7.80
2009,09,17,05,34,7.80
2009,09,17,05,35,7.90
2009,09,17,05,36,7.90
2009,09,17,05,37,7.90
2009,09,17,05,38,7.90
2009,09,17,05,39,7.90
2009,09,17,05,40,7.90
2009,09,17,05,41,7.90
2009,09,17,05,42,7.90
2009,09,17,05,43,8.00
2009,09,17,05,44,8.00
2009,09,17,05,45,7.90
2009,09,17,05,46,7.90
2009,09,17,05,47,7.80
2009,09,17,05,48,7.80
2009,09,17,05,49,7.80
2009,09,17,05,50,7.80
2009,09,17,05,51,7.80
2009,09,17,05,52,7.90
2009,09,17,05,53,7.90
2009,09,17,05,54,8.00
2009,09,17,05,55,8.00
2009,09,17,05,56,8.00
2009,09,17,05,57,7.90
2009,09,17,05,58,7.80
2009,09,17,05,59,7.60
2009,09,17,06,00,7.50
2009,09,17,06,01,7.40
2009,09,17,06,02,7.20
2009,09,17,06,03,7.10
2009,09,17,06,04,6.90
2009,09,17,06,05,6.80
2009,09,17,06,06,6.60
2009,09,17,06,07,6.50
2009,09,17,06,08,6.40
2009,09,17,06,09,6.30
2009,09,17,06,10,6.20
2009,09,17,06,11,6.20
2009,09,17,06,12,6.20
2009,09,17,06,13,6.20
2009,09,17,06,14,6.20
2009,09,17,06,15,6.20
2009,09,17,06,16,6.20
2009,09,17,06,17,6.20
2009,09,17,06,18,6.20
2009,09,17,06,19,6.30
2009,09,17,06,20,6.30
2009,09,17,06,21,6.40
2009,09,17,06,22,6.40
2009,09,17,06,23,6.40
2009,09,17,06,24,6.50
2009,09,17,06,25,6.60
2009,09,17,06,26,6.60
2009,09,17,06,27,6.60
2009,09,17,06,28,6.60
2009,09,17,06,29,6.60
2009,09,17,06,30,6.60
2009,09,17,06,31,6.70
2009,09,17,06,32,6.70
2009,09,17,06,33,6.70
2009,09,17,06,34,6.80
2009,09,17,06,35,6.80
2009,09,17,06,36,6.80
2009,09,17,06,37,6.80
2009,09,17,06,38,6.90
2009,09,17,06,39,6.90
2009,09,17,06,40,6.90
2009,09,17,06,41,7.00
2009,09,17,06,42,7.00
2009,09,17,06,43,7.10
2009,09,17,06,44,7.10
2009,09,17,06,45,7.10
2009,09,17,06,46,7.20
2009,09,17,06,47,7.20
2009,09,17,06,48,7.30
2009,09,17,06,49,7.30
2009,09,17,06,50,7.40
2009,09,17,06,51,7.40
2009,09,17,06,52,7.50
2009,09,17,06,53,7.50
2009,09,17,06,54,7.50
2009,09,17,06,55,7.50
2009,09,17,06,56,7.50
2009,09,17,06,57,7.60
2009,09,17,06,58,7.60
2009,09,17,06,59,7.50
2009,09,17,07,00,7.50
2009,09,17,07,01,7.50
2009,09,17,07,02,7.50
2009,09,17,07,03,7.50
2009,09,17,07,04,7.50
2009,09,17,07,05,7.50
2009,09,17,07,06,7.50
2009,09,17,07,07,7.50
2009,09,17,07,08,7.60
2009,09,17,07,09,7.60
2009,09,17,07,10,7.70
2009,09,17,07,11,7.70
2009,09,17,07,12,7.80
2009,09,17,07,13,7.80
2009,09,17,07,14,7.80
2009,09,17,07,15,7.80
2009,09,17,07,16,7.90
2009,09,17,07,17,7.90
2009,09,17,07,18,7.90
2009,09,17,07,19,7.90
2009,09,17,07,20,7.90
2009,09,17,07,21,8.00
2009,09,17,07,22,7.90
2009,09,17,07,23,7.90
2009,09,17,07,24,7.80
2009,09,17,07,25,7.80
2009,09,17,07,26,7.80
2009,09,17,07,27,7.70
2009,09,17,07,28,7.60
2009,09,17,07,29,7.60
2009,09,17,07,30,7.50
2009,09,17,07,31,7.50
2009,09,17,07,32,7.40
2009,09,17,07,33,7.40
2009,09,17,07,34,7.30
2009,09,17,07,35,7.30
2009,09,17,07,36,7.20
2009,09,17,07,37,7.20
2009,09,17,07,38,7.20
2009,09,17,07,39,7.20
2009,09,17,07,40,7.20
2009,09,17,07,41,7.20
2009,09,17,07,42,7.20
2009,09,17,07,43,7.20
2009,09,17,07,44,7.20
2009,09,17,07,45,7.30
2009,09,17,07,46,7.30
2009,09,17,07,47,7.30
2009,09,17,07,48,7.30
2009,09,17,07,49,7.40
2009,09,17,07,50,7.50
2009,09,17,07,51,7.50
2009,09,17,07,52,7.60
2009,09,17,07,53,7.70
2009,09,17,07,54,7.70
2009,09,17,07,55,7.80
2009,09,17,07,56,7.80
2009,09,17,07,57,7.80
2009,09,17,07,58,7.80
2009,09,17,07,59,7.80
2009,09,17,08,00,7.80
2009,09,17,08,01,7.70
2009,09,17,08,02,7.70
2009,09,17,08,03,7.70
2009,09,17,08,04,7.70
2009,09,17,08,05,7.70
2009,09,17,08,06,7.80
2009,09,17,08,07,7.80
2009,09,17,08,08,7.90
2009,09,17,08,09,8.00
2009,09,17,08,10,8.10
2009,09,17,08,11,8.30
2009,09,17,08,12,8.40
2009,09,17,08,13,8.40
2009,09,17,08,14,8.40
2009,09,17,08,15,8.50
2009,09,17,08,16,8.50
2009,09,17,08,17,8.60
2009,09,17,08,18,8.70
2009,09,17,08,19,8.70
2009,09,17,08,20,8.80
2009,09,17,08,21,8.90
2009,09,17,08,22,9.10
2009,09,17,08,23,9.30
2009,09,17,08,24,9.50
2009,09,17,08,25,9.70
2009,09,17,08,26,9.70
2009,09,17,08,27,9.90
2009,09,17,08,28,10.00
2009,09,17,08,29,10.20
2009,09,17,08,30,10.40
2009,09,17,08,31,10.50
2009,09,17,08,32,10.70
2009,09,17,08,33,10.80
2009,09,17,08,34,10.90
2009,09,17,08,35,11.10
2009,09,17,08,36,11.20
2009,09,17,08,37,11.20
2009,09,17,08,38,11.30
2009,09,17,08,39,11.40
2009,09,17,08,40,11.40
2009,09,17,08,41,11.40
2009,09,17,08,42,11.40
2009,09,17,08,43,11.40
2009,09,17,08,44,11.50
2009,09,17,08,45,11.60
2009,09,17,08,46,11.60
2009,09,17,08,47,11.80
2009,09,17,08,48,11.80
2009,09,17,08,49,11.80
2009,09,17,08,50,11.80
2009,09,17,08,51,11.80
2009,09,17,08,52,11.80
2009,09,17,08,53,11.80
2009,09,17,08,54,11.90
2009,09,17,08,55,11.90
2009,09,17,08,56,11.90
2009,09,17,08,57,11.90
2009,09,17,08,58,11.90
2009,09,17,08,59,12.00
2009,09,17,09,00,12.10
2009,09,17,09,01,12.10
2009,09,17,09,02,12.10
2009,09,17,09,03,12.10
2009,09,17,09,04,12.10
2009,09,17,09,05,12.20
2009,09,17,09,06,12.30
2009,09,17,09,07,12.40
2009,09,17,09,08,12.40
2009,09,17,09,09,12.50
2009,09,17,09,10,12.50
2009,09,17,09,11,12.60
2009,09,17,09,12,12.60
2009,09,17,09,13,12.60
2009,09,17,09,14,12.70
2009,09,17,09,15,12.70
2009,09,17,09,16,12.60
2009,09,17,09,17,12.60
2009,09,17,09,18,12.60
2009,09,17,09,19,12.60
2009,09,17,09,20,12.60
2009,09,17,09,21,12.60
2009,09,17,09,22,12.60
2009,09,17,09,23,12.60
2009,09,17,09,24,12.60
2009,09,17,09,25,12.70
2009,09,17,09,26,12.80
2009,09,17,09,27,12.80
2009,09,17,09,28,12.80
2009,09,17,09,29,12.80
2009,09,17,09,30,12.80
2009,09,17,09,31,12.80
2009,09,17,09,32,12.80
2009,09,17,09,33,12.90
2009,09,17,09,34,12.90
2009,09,17,09,35,13.00
2009,09,17,09,36,13.00
2009,09,17,09,37,13.00
2009,09,17,09,38,13.00
2009,09,17,09,39,13.00
2009,09,17,09,40,13.00
2009,09,17,09,41,13.00
2009,09,17,09,42,13.10
2009,09,17,09,43,13.10
2009,09,17,09,44,13.20
2009,09,17,09,45,13.20
2009,09,17,09,46,13.20
2009,09,17,09,47,13.20
2009,09,17,09,48,13.20
2009,09,17,09,49,13.30
2009,09,17,09,50,13.20
2009,09,17,09,51,13.20
2009,09,17,09,52,13.30
2009,09,17,09,53,13.40
2009,09,17,09,54,13.50
2009,09,17,09,55,13.60
2009,09,17,09,56,13.70
2009,09,17,09,57,13.70
2009,09,17,09,58,13.80
2009,09,17,09,59,13.80
2009,09,17,10,00,13.90
2009,09,17,10,01,14.00
2009,09,17,10,02,14.20
2009,09,17,10,03,14.30
2009,09,17,10,04,14.40
2009,09,17,10,05,14.50
2009,09,17,10,06,14.60
2009,09,17,10,07,14.70
2009,09,17,10,08,14.80
2009,09,17,10,09,14.80
2009,09,17,10,10,14.80
2009,09,17,10,11,14.80
2009,09,17,10,12,14.80
2009,09,17,10,13,14.90
2009,09,17,10,14,14.90
2009,09,17,10,15,14.80
2009,09,17,10,16,14.80
2009,09,17,10,17,14.70
2009,09,17,10,18,14.60
2009,09,17,10,19,14.50
2009,09,17,10,20,14.40
2009,09,17,10,21,14.30
2009,09,17,10,22,14.30
2009,09,17,10,23,14.40
2009,09,17,10,24,14.40
2009,09,17,10,25,14.40
2009,09,17,10,26,14.40
2009,09,17,10,27,14.30
2009,09,17,10,28,14.30
2009,09,17,10,29,14.10
2009,09,17,10,30,14.00
2009,09,17,10,31,14.00
2009,09,17,10,32,14.00
2009,09,17,10,33,14.00
2009,09,17,10,34,14.00
2009,09,17,10,35,14.00
2009,09,17,10,36,13.90
2009,09,17,10,37,13.90
2009,09,17,10,38,13.80
2009,09,17,10,39,13.80
2009,09,17,10,40,13.80
2009,09,17,10,41,13.70
2009,09,17,10,42,13.70
2009,09,17,10,43,13.70
2009,09,17,10,44,13.70
2009,09,17,10,45,13.70
2009,09,17,10,46,13.70
2009,09,17,10,47,13.80
2009,09,17,10,48,13.80
2009,09,17,10,49,13.90
2009,09,17,10,50,14.00
2009,09,17,10,51,14.00
2009,09,17,10,52,14.00
2009,09,17,10,53,14.00
2009,09,17,10,54,13.90
2009,09,17,10,55,13.80
2009,09,17,10,56,13.80
2009,09,17,10,57,13.80
2009,09,17,10,58,13.80
2009,09,17,10,59,13.90
2009,09,17,11,00,13.90
2009,09,17,11,01,14.00
2009,09,17,11,02,14.00
2009,09,17,11,03,14.00
2009,09,17,11,04,13.90
2009,09,17,11,05,13.90
2009,09,17,11,06,13.80
2009,09,17,11,07,13.80
2009,09,17,11,08,13.90
2009,09,17,11,09,13.90
2009,09,17,11,10,13.90
2009,09,17,11,11,14.00
2009,09,17,11,12,14.10
2009,09,17,11,13,14.10
2009,09,17,11,14,14.20
2009,09,17,11,15,14.20
2009,09,17,11,16,14.20
2009,09,17,11,17,14.20
2009,09,17,11,18,14.20
2009,09,17,11,19,14.20
2009,09,17,11,20,14.20
2009,09,17,11,21,14.20
2009,09,17,11,22,14.30
2009,09,17,11,23,14.30
2009,09,17,11,24,14.40
2009,09,17,11,25,14.40
2009,09,17,11,26,14.40
2009,09,17,11,27,14.50
2009,09,17,11,28,14.50
2009,09,17,11,29,14.50
2009,09,17,11,30,14.40
2009,09,17,11,31,14.40
2009,09,17,11,32,14.30
2009,09,17,11,33,14.20
2009,09,17,11,34,14.20
2009,09,17,11,35,14.20
2009,09,17,11,36,14.20
2009,09,17,11,37,14.20
2009,09,17,11,38,14.20
2009,09,17,11,39,14.10
2009,09,17,11,40,14.00
2009,09,17,11,41,14.00
2009,09,17,11,42,14.00
2009,09,17,11,43,14.00
2009,09,17,11,44,14.00
2009,09,17,11,45,14.00
2009,09,17,11,46,14.00
2009,09,17,11,47,14.00
2009,09,17,11,48,14.00
2009,09,17,11,49,14.00
2009,09,17,11,50,14.00
2009,09,17,11,51,14.10
2009,09,17,11,52,14.20
2009,09,17,11,53,14.20
2009,09,17,11,54,14.30
2009,09,17,11,55,14.50
2009,09,17,11,56,14.50
2009,09,17,11,57,14.60
2009,09,17,11,58,14.70
2009,09,17,11,59,14.70
2009,09,17,12,00,14.80
2009,09,17,12,01,14.80
2009,09,17,12,02,14.90
2009,09,17,12,03,14.90
2009,09,17,12,04,15.00
2009,09,17,12,05,15.00
2009,09,17,12,06,15.00
2009,09,17,12,07,15.00
2009,09,17,12,08,14.90
2009,09,17,12,09,15.00
2009,09,17,12,10,15.00
2009,09,17,12,11,15.10
2009,09,17,12,12,15.20
2009,09,17,12,13,15.20
2009,09,17,12,14,15.30
2009,09,17,12,15,15.30
2009,09,17,12,16,15.30
2009,09,17,12,17,15.30
2009,09,17,12,18,15.30
2009,09,17,12,19,15.30
2009,09,17,12,20,15.30
2009,09,17,12,21,15.40
2009,09,17,12,22,15.50
2009,09,17,12,23,15.50
2009,09,17,12,24,15.60
2009,09,17,12,25,15.70
2009,09,17,12,26,15.70
2009,09,17,12,27,15.80
2009,09,17,12,28,15.80
2009,09,17,12,29,15.80
2009,09,17,12,30,15.80
2009,09,17,12,31,15.80
2009,09,17,12,32,15.80
2009,09,17,12,33,15.80
2009,09,17,12,34,15.90
2009,09,17,12,35,15.80
2009,09,17,12,36,15.80
2009,09,17,12,37,15.90
2009,09,17,12,38,15.90
2009,09,17,12,39,16.10
2009,09,17,12,40,16.10
2009,09,17,12,41,16.10
2009,09,17,12,42,16.10
2009,09,17,12,43,16.20
2009,09,17,12,44,16.30
2009,09,17,12,45,16.40
2009,09,17,12,46,16.50
2009,09,17,12,47,16.70
2009,09,17,12,48,16.70
2009,09,17,12,49,16.90
2009,09,17,12,50,17.00
2009,09,17,12,51,17.10
2009,09,17,12,52,17.20
2009,09,17,12,53,17.30
2009,09,17,12,54,17.40
2009,09,17,12,55,17.50
2009,09,17,12,56,17.60
2009,09,17,12,57,17.60
2009,09,17,12,58,17.70
2009,09,17,12,59,17.80
2009,09,17,13,00,17.90
2009,09,17,13,01,18.00
2009,09,17,13,02,18.20
2009,09,17,13,03,18.40
2009,09,17,13,04,18.50
2009,09,17,13,05,18.60
2009,09,17,13,06,18.70
2009,09,17,13,07,18.80
2009,09,17,13,08,18.80
2009,09,17,13,09,18.90
2009,09,17,13,10,19.00
2009,09,17,13,11,19.00
2009,09,17,13,12,18.90
2009,09,17,13,13,18.90
2009,09,17,13,14,19.00
2009,09,17,13,15,19.10
2009,09,17,13,16,19.10
2009,09,17,13,17,19.10
2009,09,17,13,18,19.10
2009,09,17,13,19,19.10
2009,09,17,13,20,19.10
2009,09,17,13,21,19.10
2009,09,17,13,22,19.10
2009,09,17,13,23,19.10
2009,09,17,13,24,19.10
2009,09,17,13,25,19.10
2009,09,17,13,26,19.10
2009,09,17,13,27,19.20
2009,09,17,13,28,19.30
2009,09,17,13,29,19.30
2009,09,17,13,30,19.30
2009,09,17,13,31,19.40
2009,09,17,13,32,19.50
2009,09,17,13,33,19.50
2009,09,17,13,34,19.40
2009,09,17,13,35,19.40
2009,09,17,13,36,19.40
2009,09,17,13,37,19.50
2009,09,17,13,38,19.50
2009,09,17,13,39,19.60
2009,09,17,13,40,19.60
2009,09,17,13,41,19.60
2009,09,17,13,42,19.60
2009,09,17,13,43,19.60
2009,09,17,13,44,19.60
2009,09,17,13,45,19.70
2009,09,17,13,46,19.70
2009,09,17,13,47,19.80
2009,09,17,13,48,19.90
2009,09,17,13,49,19.90
2009,09,17,13,50,19.70
2009,09,17,13,51,19.70
2009,09,17,13,52,19.70
2009,09,17,13,53,19.70
2009,09,17,13,54,19.80
2009,09,17,13,55,19.80
2009,09,17,13,56,19.80
2009,09,17,13,57,19.80
2009,09,17,13,58,19.80
2009,09,17,13,59,19.80
2009,09,17,14,00,19.70
2009,09,17,14,01,19.70
2009,09,17,14,02,19.80
2009,09,17,14,03,19.80
2009,09,17,14,04,19.80
2009,09,17,14,05,19.80
2009,09,17,14,06,19.80
2009,09,17,14,07,19.90
2009,09,17,14,08,19.90
2009,09,17,14,09,19.90
2009,09,17,14,10,19.90
2009,09,17,14,11,19.90
2009,09,17,14,12,19.90
2009,09,17,14,13,20.00
2009,09,17,14,14,20.10
2009,09,17,14,15,20.10
2009,09,17,14,16,20.20
2009,09,17,14,17,20.20
2009,09,17,14,18,20.20
2009,09,17,14,19,20.10
2009,09,17,14,20,20.10
2009,09,17,14,21,20.00
2009,09,17,14,22,19.90
2009,09,17,14,23,19.90
2009,09,17,14,24,19.90
2009,09,17,14,25,19.90
2009,09,17,14,26,19.90
2009,09,17,14,27,19.90
2009,09,17,14,28,19.90
2009,09,17,14,29,19.80
2009,09,17,14,30,19.80
2009,09,17,14,31,19.80
2009,09,17,14,32,19.80
2009,09,17,14,33,19.90
2009,09,17,14,34,20.00
2009,09,17,14,35,20.10
2009,09,17,14,36,20.10
2009,09,17,14,37,20.20
2009,09,17,14,38,20.20
2009,09,17,14,39,20.20
2009,09,17,14,40,20.20
2009,09,17,14,41,20.20
2009,09,17,14,42,20.20
2009,09,17,14,43,20.20
2009,09,17,14,44,20.20
2009,09,17,14,45,20.20
2009,09,17,14,46,20.20
2009,09,17,14,47,20.20
2009,09,17,14,48,20.20
2009,09,17,14,49,20.20
2009,09,17,14,50,20.20
2009,09,17,14,51,20.20
2009,09,17,14,52,20.20
2009,09,17,14,53,20.30
2009,09,17,14,54,20.30
2009,09,17,14,55,20.30
2009,09,17,14,56,20.30
2009,09,17,14,57,20.20
2009,09,17,14,58,20.20
2009,09,17,14,59,20.20
2009,09,17,15,00,20.20
2009,09,17,15,01,20.10
2009,09,17,15,02,20.10
2009,09,17,15,03,20.10
2009,09,17,15,04,20.00
2009,09,17,15,05,20.00
2009,09,17,15,06,20.10
2009,09,17,15,07,20.10
2009,09,17,15,08,19.90
2009,09,17,15,09,19.90
2009,09,17,15,10,19.90
2009,09,17,15,11,19.90
2009,09,17,15,12,19.90
2009,09,17,15,13,19.90
2009,09,17,15,14,19.90
2009,09,17,15,15,20.00
2009,09,17,15,16,20.10
2009,09,17,15,17,20.10
2009,09,17,15,18,20.10
2009,09,17,15,19,20.10
2009,09,17,15,20,20.10
2009,09,17,15,21,20.10
2009,09,17,15,22,20.20
2009,09,17,15,23,20.20
2009,09,17,15,24,20.10
2009,09,17,15,25,20.10
2009,09,17,15,26,20.10
2009,09,17,15,27,20.10
2009,09,17,15,28,20.10
2009,09,17,15,29,20.00
2009,09,17,15,30,19.90
2009,09,17,15,31,20.10
2009,09,17,15,32,20.10
2009,09,17,15,33,20.20
2009,09,17,15,34,20.20
2009,09,17,15,35,20.20
2009,09,17,15,36,20.30
2009,09,17,15,37,20.30
2009,09,17,15,38,20.30
2009,09,17,15,39,20.40
2009,09,17,15,40,20.40
2009,09,17,15,41,20.50
2009,09,17,15,42,20.50
2009,09,17,15,43,20.50
2009,09,17,15,44,20.60
2009,09,17,15,45,20.60
2009,09,17,15,46,20.50
2009,09,17,15,47,20.40
2009,09,17,15,48,20.20
2009,09,17,15,49,20.20
2009,09,17,15,50,20.20
2009,09,17,15,51,20.20
2009,09,17,15,52,20.20
2009,09,17,15,53,20.20
2009,09,17,15,54,20.10
2009,09,17,15,55,20.10
2009,09,17,15,56,20.10
2009,09,17,15,57,20.10
2009,09,17,15,58,20.20
2009,09,17,15,59,20.20
2009,09,17,16,00,20.20
2009,09,17,16,01,20.20
2009,09,17,16,02,20.20
2009,09,17,16,03,20.20
2009,09,17,16,04,20.20
2009,09,17,16,05,20.20
2009,09,17,16,06,20.20
2009,09,17,16,07,20.20
2009,09,17,16,08,20.20
2009,09,17,16,09,20.20
2009,09,17,16,10,20.20
2009,09,17,16,11,20.20
2009,09,17,16,12,20.20
2009,09,17,16,13,20.20
2009,09,17,16,14,20.10
2009,09,17,16,15,20.10
2009,09,17,16,16,20.10
2009,09,17,16,17,20.10
2009,09,17,16,18,20.20
2009,09,17,16,19,20.20
2009,09,17,16,20,20.30
2009,09,17,16,21,20.30
2009,09,17,16,22,20.30
2009,09,17,16,23,20.20
2009,09,17,16,24,20.30
2009,09,17,16,25,20.30
2009,09,17,16,26,20.30
2009,09,17,16,27,20.30
2009,09,17,16,28,20.20
2009,09,17,16,29,20.10
2009,09,17,16,30,20.10
2009,09,17,16,31,20.10
2009,09,17,16,32,20.10
2009,09,17,16,33,20.10
2009,09,17,16,34,20.10
2009,09,17,16,35,20.10
2009,09,17,16,36,20.10
2009,09,17,16,37,20.10
2009,09,17,16,38,20.20
2009,09,17,16,39,20.20
2009,09,17,16,40,20.20
2009,09,17,16,41,20.20
2009,09,17,16,42,20.20
2009,09,17,16,43,20.20
2009,09,17,16,44,20.20
2009,09,17,16,45,20.20
2009,09,17,16,46,20.20
2009,09,17,16,47,20.20
2009,09,17,16,48,20.20
2009,09,17,16,49,20.20
2009,09,17,16,50,20.20
2009,09,17,16,51,20.20
2009,09,17,16,52,20.20
2009,09,17,16,53,20.20
2009,09,17,16,54,20.20
2009,09,17,16,55,20.20
2009,09,17,16,56,20.10
2009,09,17,16,57,20.00
2009,09,17,16,58,19.90
2009,09,17,16,59,19.90
2009,09,17,17,00,19.90
2009,09,17,17,01,19.90
2009,09,17,17,02,19.90
2009,09,17,17,03,19.80
2009,09,17,17,04,19.80
2009,09,17,17,05,19.80
2009,09,17,17,06,19.80
2009,09,17,17,07,19.70
2009,09,17,17,08,19.70
2009,09,17,17,09,19.70
2009,09,17,17,10,19.60
2009,09,17,17,11,19.60
2009,09,17,17,12,19.50
2009,09,17,17,13,19.50
2009,09,17,17,14,19.50
2009,09,17,17,15,19.50
2009,09,17,17,16,19.50
2009,09,17,17,17,19.50
2009,09,17,17,18,19.50
2009,09,17,17,19,19.50
2009,09,17,17,20,19.50
2009,09,17,17,21,19.50
2009,09,17,17,22,19.40
2009,09,17,17,23,19.40
2009,09,17,17,24,19.40
2009,09,17,17,25,19.40
2009,09,17,17,26,19.40
2009,09,17,17,27,19.40
2009,09,17,17,28,19.40
2009,09,17,17,29,19.40
2009,09,17,17,30,19.30
2009,09,17,17,31,19.30
2009,09,17,17,32,19.30
2009,09,17,17,33,19.30
2009,09,17,17,34,19.30
2009,09,17,17,35,19.20
2009,09,17,17,36,19.20
2009,09,17,17,37,19.20
2009,09,17,17,38,19.20
2009,09,17,17,39,19.20